User: anonymous   Login
Location: Bushey
(51.6333°N, 0.3667°W)
Time: 17:42:01
(UTC+00:00)
Language:

CSL-04 Debris - Orbit

View from above orbital plane
View from above orbital plane
View from above satellite
View from above satellite

Ground track
Ground track

The orbit data is extracted from the following two-line orbital elements,

1 25733U 99025D   21127.89084582  .00000072  00000-0  58450-4 0  9997
2 25733  98.9124 163.2324 0016066 118.6659 241.6133 14.16457228135628
Epoch (UTC): 07 May 2021 21:22:49
Eccentricity: 0.0016066
inclination: 98.9124°
perigee height: 826 km
apogee height: 849 km
right ascension of ascending node: 163.2324°
argument of perigee: 118.6659°
revolutions per day: 14.16457228
mean anomaly at epoch: 241.6133°
orbit number at epoch: 13562

The dashed part of the orbit path shows where the satellite is in the earth's shadow,  

DLR